Regional Weather Roundup
Issued by NWS Newport/Morehead, NC

Current Version | Previous Version | Text Only | Print | Product List | Glossary Off
Versions: 1 2 3 4 5 6 7 8 9 10 11 12 13 14 15 16 17 18 19 20 21 22 23 24 25 26 27 28 29 30 31 32 33 34 35 36 37 38 39 40 41 42 43 44 45 46 47 48 49 50
036 ASUS42 KMHX 211313 RWRMHX WEATHER ROUNDUP FOR EASTERN NORTH CAROLINA NATIONAL WEATHER SERVICE NEWPORT/MOREHEAD CITY NC 900 AM EDT SAT APR 21 2018 NOTE: "FAIR" INDICATES FEW OR NO CLOUDS BELOW 12,000 FEET WITH NO SIGNIFICANT WEATHER AND/OR OBSTRUCTIONS TO VISIBILITY NCZ015>017-031-032-045>047-102-103-211400- NORTH COAST CITY SKY/WX TMP DP RH WIND PRES REMARKS EDENTON FAIR 53 47 78 NE5 30.46R ELIZABETH CITY FAIR 50 44 80 N6 30.46R KITTY HAWK FAIR 51 43 75 NE6 30.43S MANTEO FAIR 53 38 58 E10 30.45R $$ NCZ045>047-081-094-103-104-211400- CENTRAL COAST CITY SKY/WX TMP DP RH WIND PRES REMARKS FRISCO FAIR 56 36 47 NE9 30.43R $$ NCZ095-097-098-100-101-211400- SOUTHERN COAST CITY SKY/WX TMP DP RH WIND PRES REMARKS BEAUFORT FAIR 58 38 47 VRB5 30.43R CEDAR ISLAND NOT AVBL JACKSONVILLE FAIR 56 42 59 NE6 30.43R PINEY ISLAND NOT AVBL WILMINGTON FAIR 56 48 74 NE7 30.42R $$ NCZ011>013-027>030-043-044-078>080-089-090>093-098-211400- COASTAL PLAIN CITY SKY/WX TMP DP RH WIND PRES REMARKS AHOSKIE FAIR 47 42 80 CALM 30.46R CLINTON FAIR 53 44 71 E3 30.45S ELIZABETHTOWN FAIR 50 42 73 MISG 30.44S GOLDSBORO FAIR 53 44 73 E5 30.43R GREENVILLE FAIR 52 39 62 CALM 30.45R HAVELOCK SUNNY 59 47 64 VRB3 30.44R KENANSVILLE FAIR 52 45 76 E3 30.45R KINSTON FAIR 54 43 66 CALM 30.45S NEW BERN FAIR 55 43 63 E5 30.45R RICHLANDS FAIR 54 42 64 NE5 30.45R ROCKY MOUNT FAIR 50 44 80 CALM 30.46R WASHINGTON FAIR 53 40 61 CALM 30.45R WHITEVILLE FAIR 53 45 72 NE7 30.42S $$ AMZ130-135-150-152-154-156-158-170-250-252-270-ANZ085-086-088-633-658-670-211400- MARINE OBSERVATIONS STATION/POSITION TIME TEMP WIND PRES WAVE SWELL AIR SEA DIR/SP/G HT/PER HT/PER (UTC) (F) (DEG/KT/KT) (MB) (FT/S) (FT/S) CHESAPEAKE LIGHT NOT AVBL 64 E VA BEACH 1250 47 48 10/ 10/ 12 1031.4 3/ 6 2/ 6 DUCK 1248 49 51 30/ 12/ 13 1030.5 2 E DUCK 1300 51 N/A 2/ 5 OREGON INLET 1242 51 54 20/ 8/ 11 1030.7 13E OREGON INLT 1248 50 N/A 3/ 5 3/ 5 HATTERAS CG 1248 54 60 30/ 11/ 15 1030.2 DIAMOND BUOY 1250 54 360/ 17/ 21 1030.2 3/ 7 3/ 7 CAPE LOOKOUT 1300 50/ 14/ 15 1030.4 BEAUFORT LAB 1248 56 62 50/ 5/ 9 1030.4 30 SE NEW RVR IN 1208 60 65 90/ 12/ 17 1029.5 30 SE NEW RVR IN 1300 66 N/A 3/ 8 27 SE WRIGHTSVLE 1208 61 66 90/ 14/ 23 1029.4 5 SE WRIGHTSVLE 1208 59 60 80/ 10/ 14 1029.1 225 S CAPE HAT 1250 63 70/ 12/ 16 1026.6 5/ 6 3/ 6 41 SE CHARLESTON 1250 64 67 60/ 16/ 19 1027.3 5/ 9 3/ 9 $$

USA.gov is the U.S. government's official web portal to all federal, state and local government web resources and services.